JCSAT-2B

Last updated on Wed Mar 11 2026 00:02:54 GMT+0000 (Coordinated Universal Time)

1 41471U 16028A 26069.47614003 -.00000163 00000+0 00000+0 0 9991 2 41471 0.0151 168.2770 0000889 189.7497 135.5249 1.00273320 36148
UTC large
Height (km)
Speed (km/s)
/
Latitude / Longitude
Inclination (degrees)
Orbital Period (minutes)
Azimuth
Elevation
Range (km)
Doppler Factor

Next 0 passes for location: London (51.5072 / 0.1276)

Sorry there are no passes over London.